Location: La Junie
(44.7428°N, 2.1773°E)
Time: 11:19:04
(UTC+00:00)

Cosmos 1892 Rocket - Pass Details

Date: 15 May 2026
Orbit: 598 x 626 km, 82.5° (Epoch: 8 June)

Event Time Altitude Azimuth Distance (km) Brightness Sun altitude
Rises 19:46:03 0° 353° (N) 2,863 7.6 -5.9°
Reaches altitude 10° 19:48:17 10° 356° (N) 1,953 6.7 -6.2°
Maximum altitude 19:52:35 69° 80° (E) 644 3.5 -6.8°
Drops below altitude 10° 19:56:50 10° 164° (SSE) 1,932 5.6 -7.4°
Enters shadow 19:58:23 - 166° (SSE) 2,561 6.3 -7.7°
